Funds performance

fund name 1 mth 3 mth 12 mthsort icon ytd Inception Net assets Return Date
Dexia Equties L Japan Z JPY Acc 0.91% -7.47% 22.84% -7.47% -1.52% 4294967295 2014-03-31
Invesco Pan European Equity I 1.28% 9.06% 22.84% 14.39% 0.83% 666200243 2012-09-30
HSBC GIF Hong Kong Equity I -0.72% 3.70% 22.84% 1.60% 0.00% 435486975 2011-05-31
Truffle Flexible C 3.46% 3.23% 22.84% 3.23% 19.33% 626020963 2014-03-31
db x-trackers Russell MidCap Idx ETF 1C -0.32% 3.39% 22.84% 3.39% 13.51% 105080558 2014-03-31
PowerShares FTSE RAFI US Fnd CAD Hg ETF 1.95% 2.24% 22.84% 2.24% 21.70% 103136837 2014-03-31
Pioneer Fds Eurp Eq Trgt Inc I EUR DSA -0.89% 2.60% 22.84% 2.60% 20.70% 948708163 2014-03-31
Foord International FF C -0.25% -0.06% 22.84% -0.06% 8.90% 2891536533 2014-03-31
SM Investors Offshore Ltd 1.28% -1.63% 22.85% -1.63% 4.08% 2014-03-31
SPDR S&P International Cons Disc Sector -0.76% -1.12% 22.85% -1.12% 9.62% 2014-03-31
CFS FC WS Inv-Perpetual Balanced Growth 3.30% 4.35% 22.85% 12.91% 6.27% 44030000 2013-07-31
JPM Europe Eq X (acc)-EUR 0.05% 5.39% 22.85% 5.39% 6.95% 388237765 2014-03-31
GS US Equity Portfolio I Acc 0.07% 1.74% 22.85% 1.74% 5.41% 2780764217 2014-03-31
MassMutual Premier Main Street R5 -0.15% 1.13% 22.85% 1.13% 6.67% 2014-03-31
ComStage STOXX®Europe 600 Trvl&LsrNR ETF -2.57% 6.10% 22.85% 6.10% 9.76% 19043682 2014-03-31
Ivy Value I 2.05% 2.31% 22.85% 2.31% 6.09% 2014-03-31
FGF Actions Euro ISR Solidaire I -0.34% 2.00% 22.85% 2.00% 5.08% 2014-03-31
Touchstone Small Cap Value Institutional 2.70% 1.59% 22.85% 1.59% 15.35% 2014-03-31
STANLIB Global Balanced FF B1 -1.70% 0.61% 22.85% 0.61% 8.38% 845157872 2014-03-31
NewFunds eRAFI Financial 15 ETF 7.09% 7.19% 22.86% 7.19% 24.36% 3966471 2014-03-31
Source STOXX Europe 600 Opt Media ETF -3.00% -1.45% 22.86% -1.45% 19.59% 15641196 2014-03-31
CSA Equity Small & Mid Cap Switzerland L 1.64% 6.24% 22.86% 6.24% 1.08% 220156986 2014-03-31
MassMutual Premier Main Street Svc -0.15% 1.12% 22.87% 1.12% 6.56% 2014-03-31
RiverSource Discp Sm & Md Cap Eq W 2.94% 10.11% 22.87% 11.62% 0.46% 2011-04-30
Eaton Vance Tx-Mgd Small-Cap I 0.76% 0.67% 22.87% 0.67% 17.09% 2014-03-31
JPMorgan Market Expansion Enh Idx Select 0.57% 2.33% 22.87% 2.33% 10.01% 2014-03-31
iShares S&P 500 Growth -0.74% 1.35% 22.87% 1.35% 2.77% 2014-03-31
AllianzGI NFJ Mid-Cap Value P 2.03% 2.49% 22.87% 2.49% 13.15% 2014-03-31
Commerzbank ETC -2x Gold Daily Short 5.26% -13.85% 22.87% -13.85% 15.11% 2014-03-31
Dynamic Blue Chip Equity I 0.00% 3.86% 22.87% 3.86% 8.47% 435658000 2014-03-31

Upcoming events

Upcoming training

Mon, 12/05/2014 (All day) - Dubai
Tue, 13/05/2014 (All day) - Dubai